TimeEDT,TemperatureF,Dew PointF,Humidity,Sea Level PressureIn,VisibilityMPH,Wind Direction,Wind SpeedMPH,Gust SpeedMPH,PrecipitationIn,Events,Conditions,WindDirDegrees,DateUTC
12:53 AM,80.1,73.0,79,30.03,10.0,ESE,8.1,-,N/A,,Clear,110,2013-08-27 04:53:00
1:53 AM,79.0,73.0,82,30.01,10.0,East,3.5,-,N/A,,Partly Cloudy,90,2013-08-27 05:53:00
2:53 AM,79.0,72.0,79,29.99,10.0,Calm,Calm,-,N/A,,Clear,0,2013-08-27 06:53:00
3:53 AM,79.0,73.0,82,29.99,10.0,Calm,Calm,-,N/A,,Scattered Clouds,0,2013-08-27 07:53:00
4:53 AM,79.0,73.9,84,29.98,10.0,Calm,Calm,-,N/A,,Clear,0,2013-08-27 08:53:00
5:53 AM,79.0,73.9,84,29.98,10.0,NE,3.5,-,N/A,,Clear,50,2013-08-27 09:53:00
6:53 AM,79.0,73.0,82,29.99,10.0,Calm,Calm,-,N/A,,Clear,0,2013-08-27 10:53:00
7:53 AM,79.0,73.9,84,30.00,10.0,NE,3.5,-,N/A,,Clear,40,2013-08-27 11:53:00
8:53 AM,82.0,72.0,71,30.01,10.0,ENE,6.9,-,N/A,,Clear,60,2013-08-27 12:53:00
9:53 AM,82.0,72.0,71,30.02,10.0,ENE,8.1,-,N/A,,Clear,70,2013-08-27 13:53:00
10:53 AM,82.0,73.0,74,30.05,10.0,ENE,8.1,-,N/A,,Clear,70,2013-08-27 14:53:00
11:53 AM,82.9,73.9,74,30.05,10.0,ENE,9.2,-,N/A,,Clear,60,2013-08-27 15:53:00
12:53 PM,82.9,73.9,74,30.04,10.0,ENE,9.2,-,N/A,,Partly Cloudy,70,2013-08-27 16:53:00
1:23 PM,80.6,73.4,79,30.04,10.0,East,18.4,24.2,0.00,Rain,Light Rain,100,2013-08-27 17:23:00
1:32 PM,80.6,73.4,79,30.04,10.0,East,16.1,23.0,0.00,Rain,Light Rain,100,2013-08-27 17:32:00
1:53 PM,81.0,73.9,79,30.03,10.0,East,15.0,19.6,0.00,,Clear,100,2013-08-27 17:53:00
2:53 PM,81.0,73.9,79,30.01,10.0,ESE,13.8,-,N/A,,Partly Cloudy,110,2013-08-27 18:53:00
3:53 PM,80.1,73.0,79,29.99,10.0,ESE,11.5,-,N/A,,Partly Cloudy,110,2013-08-27 19:53:00
4:53 PM,81.0,70.0,69,29.97,10.0,ESE,15.0,-,N/A,,Clear,110,2013-08-27 20:53:00
5:53 PM,81.0,69.1,67,29.97,10.0,East,8.1,-,N/A,,Clear,90,2013-08-27 21:53:00
6:53 PM,80.1,66.9,64,29.99,10.0,East,6.9,-,N/A,,Clear,90,2013-08-27 22:53:00
7:53 PM,79.0,68.0,69,29.99,10.0,East,6.9,-,N/A,,Clear,80,2013-08-27 23:53:00
8:53 PM,79.0,69.1,72,29.99,10.0,ENE,5.8,-,N/A,,Clear,70,2013-08-28 00:53:00
9:53 PM,79.0,69.1,72,30.00,10.0,East,5.8,-,N/A,,Clear,80,2013-08-28 01:53:00
10:53 PM,79.0,69.1,72,30.02,10.0,NE,3.5,-,N/A,,Clear,40,2013-08-28 02:53:00
11:53 PM,79.0,70.0,74,30.03,10.0,ENE,5.8,-,N/A,,Clear,70,2013-08-28 03:53:00